Location: Bethera
(33.2010°N, 79.7880°W)
Time: 08:00:00
(UTC-04:00)

Amateur Radio Satellites - All Passes

Search period start: 21 October 2014 07:30
Search period end: 22 October 2014 07:30
Location: Bethera, 33.2010°N, 79.7880°W

Satellite Date Start Highest point End Downlink Frequencies (MHz)
Time Altitude Azimuth
SO-67 21 Oct 08:00:54 08:04:10 39° 99° (E) 08:07:24 435.3500 MHz FM
Saudisat 1A 21 Oct 08:02:26 08:05:46 22° 110° (ESE) 08:09:07 436.775 MHz
STRAND 1 21 Oct 08:26:33 08:30:32 23° 264° (W) 08:34:34 ?
HO-68 21 Oct 08:53:55 08:57:49 15° 93° (E) 09:01:41 435.675 MHz FM
JAS-2 21 Oct 08:55:00 08:58:39 14° 300° (WNW) 09:02:20 435.800 - 435.900 CW/SSB, 435.910 FM
RS-15 21 Oct 09:04:58 09:16:16 89° 63° (ENE) 09:28:05 29.354 - 29.394 USB, Beacon 29.352 USB
PANSAT 21 Oct 09:27:01 09:30:07 23° 164° (SSE) 09:33:13 not established
Saudisat 1A 21 Oct 09:41:17 09:45:08 30° 305° (NW) 09:49:00 436.775 MHz
UKube-1 21 Oct 09:55:42 09:57:57 14° 94° (E) 10:00:12 145.840 MHz, 145.915 MHz
FUNcube-1 21 Oct 10:29:15 10:30:31 11° 92° (E) 10:31:46 145.950 - 145.970 MHz USB
HO-68 21 Oct 10:38:52 10:46:04 78° 287° (WNW) 10:53:14 435.675 MHz FM
Oscar 11 21 Oct 10:39:17 10:43:23 43° 99° (E) 10:47:28 145.825 FM, Beacon 2401.500 USB
PANSAT 21 Oct 11:06:18 11:09:54 39° 177° (S) 11:13:30 not established
ZACube-1 21 Oct 11:17:15 11:21:23 47° 99° (E) 11:25:24 437.345 MHz
RS-15 21 Oct 11:20:12 11:27:14 19° 259° (W) 11:34:28 29.354 - 29.394 USB, Beacon 29.352 USB
UKube-1 21 Oct 11:30:11 11:34:16 40° 287° (WNW) 11:38:20 145.840 MHz, 145.915 MHz
MaSat-1 21 Oct 11:33:29 11:35:40 26° 253° (WSW) 11:37:44 437.345 MHz
KITSAT 1 21 Oct 11:52:31 11:57:57 20° 103° (ESE) 12:03:22 435.175 FM
FUNcube-1 21 Oct 12:03:03 12:07:07 44° 286° (WNW) 12:11:05 145.950 - 145.970 MHz USB
Oscar 11 21 Oct 12:17:08 12:19:09 13° 293° (WNW) 12:21:09 145.825 FM, Beacon 2401.500 USB
HO-68 21 Oct 12:30:08 12:32:35 12° 304° (WNW) 12:35:03 435.675 MHz FM
PANSAT 21 Oct 12:46:17 12:49:46 33° 189° (S) 12:53:14 not established
ZACube-1 21 Oct 12:55:52 12:57:17 12° 294° (WNW) 12:58:42 437.345 MHz
Oscar 19 21 Oct 12:59:42 13:02:51 17° 66° (ENE) 13:06:00 437.125 CW, 437.150 USB
JAS-1B 21 Oct 13:13:23 13:17:48 21° 67° (ENE) 13:21:57 435.800 - 435.900 CW/SSB
PCSat 21 Oct 13:16:25 13:18:17 12° 48° (NE) 13:20:09 145.825 MHz
Oscar 16 21 Oct 13:42:41 13:47:37 47° 73° (ENE) 13:52:32 437.025 USB, Beacon 2401.1428
KITSAT 1 21 Oct 13:44:28 13:52:31 72° 298° (WNW) 14:00:36 435.175 FM
Uribyol 2 21 Oct 13:56:05 14:00:20 26° 69° (ENE) 14:04:35 436.500 FM
ISS 21 Oct 13:59:37 14:02:55 71° 134° (SE) 14:06:14 145.800 FM
Gurwin Techsat 1B 21 Oct 14:00:35 14:02:55 13° 64° (ENE) 14:05:14 435.225 FM
ITAMSAT 1 21 Oct 14:01:02 14:05:21 27° 69° (ENE) 14:09:40 435.822 SSB
AO-Echo 21 Oct 14:09:02 14:13:28 39° 72° (ENE) 14:18:03 ?
TMSAT-1 21 Oct 14:14:26 14:16:41 13° 64° (ENE) 14:18:56 436.925 FM
SO-50 21 Oct 14:26:40 14:31:05 63° 300° (WNW) 14:35:38 436.795 FM
PANSAT 21 Oct 14:27:12 14:29:27 15° 201° (SSW) 14:31:42 not established
Sapphire 21 Oct 14:34:05 14:39:22 51° 61° (ENE) 14:44:37 437.095 MHz 1200 baud AX-25 AFSK
UOSAT-12 21 Oct 14:34:37 14:35:42 11° 106° (ESE) 14:36:46 437.025 FM, 437.400 FM
Oscar 19 21 Oct 14:36:45 14:41:44 49° 260° (W) 14:46:44 437.125 CW, 437.150 USB
AO-7 21 Oct 14:43:09 14:45:43 12° 52° (NE) 14:48:16 29.400 - 29.500 MHz
AO-27 21 Oct 14:44:35 14:49:46 77° 75° (ENE) 14:54:59 436.795 MHz FM
PCSat 21 Oct 14:56:58 15:02:25 90° 62° (ENE) 15:07:50 145.825 MHz
JAS-1B 21 Oct 15:02:11 15:08:14 43° 259° (W) 15:13:42 435.800 - 435.900 CW/SSB
Oscar 16 21 Oct 15:23:56 15:27:08 16° 266° (W) 15:30:20 437.025 USB, Beacon 2401.1428
Uribyol 2 21 Oct 15:35:02 15:39:37 31° 262° (W) 15:44:14 436.500 FM
Gurwin Techsat 1B 21 Oct 15:36:59 15:42:15 67° 258° (WSW) 15:47:32 435.225 FM
Oscar 10/S400 21 Oct 15:38:10 15:56:43 64° 161° (SSE) 16:31:44 145.825 - 145.975 CW/USB, Beacon 145.810 USB
ISS 21 Oct 15:38:19 15:39:56 13° 330° (NNW) 15:41:34 145.800 FM
ITAMSAT 1 21 Oct 15:40:11 15:44:40 30° 263° (W) 15:49:13 435.822 SSB
KITSAT 1 21 Oct 15:45:04 15:49:22 15° 319° (NW) 15:53:42 435.175 FM
AO-Echo 21 Oct 15:49:13 15:52:23 17° 266° (W) 15:55:36 ?
TMSAT-1 21 Oct 15:50:42 15:55:57 68° 258° (WSW) 16:01:15 436.925 FM
Uosat F 21 Oct 15:52:17 15:55:18 16° 66° (ENE) 15:58:18 435.120 FM
UOSAT-12 21 Oct 16:10:40 16:15:13 63° 300° (WNW) 16:19:53 437.025 FM, 437.400 FM
Sapphire 21 Oct 16:18:54 16:22:18 17° 256° (WSW) 16:25:42 437.095 MHz 1200 baud AX-25 AFSK
AO-40 21 Oct 16:20:51 23:34:26 49° 184° (S) 05:34:56 Beacon 2401.320
AO-7 21 Oct 16:28:47 16:36:57 68° 70° (ENE) 16:45:08 29.400 - 29.500 MHz
JAS-2 21 Oct 17:16:02 17:20:44 27° 66° (ENE) 17:25:53 435.800 - 435.900 CW/SSB, 435.910 FM
OPAL 21 Oct 17:24:45 17:27:20 14° 95° (E) 17:29:55 ?
Uosat F 21 Oct 17:28:48 17:33:37 48° 260° (W) 17:38:29 435.120 FM
Hamsat 21 Oct 17:52:11 17:55:54 31° 73° (ENE) 17:59:37 145.90 MHz
Saudisat 1A 21 Oct 18:11:11 18:15:35 63° 60° (ENE) 18:19:56 436.775 MHz
AO-7 21 Oct 18:24:14 18:30:10 22° 265° (W) 18:36:09 29.400 - 29.500 MHz
JAS-2 21 Oct 19:00:29 19:05:33 36° 264° (W) 19:11:13 435.800 - 435.900 CW/SSB, 435.910 FM
OPAL 21 Oct 19:01:39 19:06:27 50° 289° (WNW) 19:11:12 ?
STRAND 1 21 Oct 19:02:46 19:05:52 16° 94° (E) 19:08:56 ?
Hamsat 21 Oct 19:29:09 19:31:52 17° 266° (W) 19:34:34 145.90 MHz
SO-67 21 Oct 20:01:54 20:05:13 47° 261° (W) 20:08:34 435.3500 MHz FM
ISS 21 Oct 20:32:36 20:34:34 15° 31° (NNE) 20:36:31 145.800 FM
STRAND 1 21 Oct 20:40:18 20:45:14 48° 287° (WNW) 20:50:09 ?
HO-68 21 Oct 21:02:29 21:09:21 52° 70° (ENE) 21:16:15 435.675 MHz FM
RS-15 21 Oct 21:16:33 21:22:50 17° 100° (E) 21:29:00 29.354 - 29.394 USB, Beacon 29.352 USB
Oscar 11 21 Oct 21:30:55 21:34:08 21° 70° (ENE) 21:37:22 145.825 FM, Beacon 2401.500 USB
KITSAT 1 21 Oct 21:43:04 21:49:51 29° 51° (NE) 21:56:34 435.175 FM
ISS 21 Oct 22:08:14 22:11:30 57° 227° (SW) 22:14:46 145.800 FM
ZACube-1 21 Oct 22:09:42 22:13:26 25° 71° (ENE) 22:17:10 437.345 MHz
UKube-1 21 Oct 22:20:55 22:25:15 82° 257° (WSW) 22:29:38 145.840 MHz, 145.915 MHz
HO-68 21 Oct 22:51:41 22:57:15 24° 264° (W) 23:02:53 435.675 MHz FM
FUNcube-1 21 Oct 22:54:17 22:58:54 82° 77° (ENE) 23:03:29 145.950 - 145.970 MHz USB
SO-50 21 Oct 23:02:14 23:06:45 37° 56° (ENE) 23:11:16 436.795 FM
Oscar 11 21 Oct 23:06:27 23:10:07 27° 263° (W) 23:13:48 145.825 FM, Beacon 2401.500 USB
RS-15 21 Oct 23:22:31 23:33:37 90° 117° (ESE) 23:44:35 29.354 - 29.394 USB, Beacon 29.352 USB
KITSAT 1 21 Oct 23:37:45 23:45:37 59° 249° (WSW) 23:53:28 435.175 FM
ZACube-1 21 Oct 23:45:53 23:49:41 25° 264° (W) 23:53:29 437.345 MHz
SO-50 22 Oct 00:43:24 00:47:03 21° 250° (WSW) 00:50:41 436.795 FM
UOSAT-12 22 Oct 00:44:31 00:48:50 35° 56° (NE) 00:53:03 437.025 FM, 437.400 FM
MaSat-1 22 Oct 01:05:43 01:10:01 59° 293° (WNW) 01:13:58 437.345 MHz
RS-15 22 Oct 01:39:07 01:47:28 24° 320° (NW) 01:55:53 29.354 - 29.394 USB, Beacon 29.352 USB
Oscar 16 22 Oct 01:59:19 02:03:21 23° 96° (E) 02:07:22 437.025 USB, Beacon 2401.1428
Uribyol 2 22 Oct 02:14:44 02:16:47 12° 92° (E) 02:18:49 436.500 FM
ITAMSAT 1 22 Oct 02:19:37 02:21:59 13° 93° (E) 02:24:21 435.822 SSB
AO-Echo 22 Oct 02:20:59 02:24:49 20° 94° (E) 02:28:37 ?
UOSAT-12 22 Oct 02:25:15 02:28:42 21° 251° (WSW) 02:32:06 437.025 FM, 437.400 FM
JAS-1B 22 Oct 02:48:12 02:54:53 62° 102° (ESE) 03:02:53 435.800 - 435.900 CW/SSB
Oscar 19 22 Oct 02:52:27 02:57:35 83° 103° (ESE) 03:02:42 437.125 CW, 437.150 USB
AO-27 22 Oct 03:02:14 03:07:06 39° 99° (E) 03:11:57 436.795 MHz FM
Sapphire 22 Oct 03:32:34 03:34:03 11° 102° (ESE) 03:35:31 437.095 MHz 1200 baud AX-25 AFSK
Oscar 16 22 Oct 03:38:09 03:42:41 33° 289° (WNW) 03:47:12 437.025 USB, Beacon 2401.1428
Uribyol 2 22 Oct 03:51:27 03:56:35 62° 286° (WNW) 04:01:41 436.500 FM
PCSat 22 Oct 03:52:41 03:56:41 21° 106° (ESE) 04:00:42 145.825 MHz
ITAMSAT 1 22 Oct 03:56:39 04:01:47 59° 286° (WNW) 04:06:53 435.822 SSB
Gurwin Techsat 1B 22 Oct 03:57:31 04:02:50 71° 102° (ESE) 04:08:06 435.225 FM
AO-Echo 22 Oct 03:58:41 04:03:39 42° 288° (WNW) 04:08:36 ?
TMSAT-1 22 Oct 04:10:52 04:16:10 70° 102° (ESE) 04:21:26 436.925 FM
OPAL 22 Oct 04:35:23 04:38:50 18° 65° (ENE) 04:42:15 ?
AO-7 22 Oct 04:35:57 04:42:52 29° 98° (E) 04:49:44 29.400 - 29.500 MHz
JAS-1B 22 Oct 04:40:25 04:45:10 21° 293° (WNW) 04:50:29 435.800 - 435.900 CW/SSB
AO-27 22 Oct 04:42:28 04:46:18 21° 293° (WNW) 04:50:07 436.795 MHz FM
Sapphire 22 Oct 05:11:22 05:16:45 73° 296° (WNW) 05:22:10 437.095 MHz 1200 baud AX-25 AFSK
PCSat 22 Oct 05:34:41 05:39:45 41° 300° (WNW) 05:44:52 145.825 MHz
Gurwin Techsat 1B 22 Oct 05:40:07 05:42:07 12° 297° (WNW) 05:44:07 435.225 FM
Uosat F 22 Oct 05:40:33 05:45:36 74° 102° (ESE) 05:50:38 435.120 FM
TMSAT-1 22 Oct 05:53:20 05:55:25 12° 296° (WNW) 05:57:30 436.925 FM
OPAL 22 Oct 06:12:21 06:17:19 46° 258° (WSW) 06:22:15 ?
JAS-2 22 Oct 06:12:30 06:19:52 44° 98° (E) 06:27:10 435.800 - 435.900 CW/SSB, 435.910 FM
STRAND 1 22 Oct 06:15:09 06:18:10 16° 65° (ENE) 06:21:11 ?
RS-15 22 Oct 06:18:02 06:25:27 19° 35° (NE) 06:33:00 29.354 - 29.394 USB, Beacon 29.352 USB
AO-7 22 Oct 06:27:50 06:35:50 54° 293° (WNW) 06:43:50 29.400 - 29.500 MHz
Hamsat 22 Oct 07:17:09 07:21:19 69° 283° (WNW) 07:25:30 145.90 MHz
Uosat F 22 Oct 07:22:30 07:23:42 11° 297° (WNW) 07:24:54 435.120 FM
